Time,TemperatureF,DewpointF,PressureIn,WindDirection,WindDirectionDegrees,WindSpeedMPH,WindSpeedGustMPH,Humidity,HourlyPrecipIn,Conditions,Clouds,dailyrainin,SolarRadiationWatts/m^2,SoftwareType,DateUTC
2013-07-06 00:00:00,70.0,63.0,-100.00,South,180,0.0,-999.0,77,-99.99,,,-99.99,0.000000,,2013-07-06 04:00:00,
2013-07-06 00:43:00,70.0,63.0,-100.00,South,180,0.0,-999.0,77,-99.99,,,-99.99,0.000000,,2013-07-06 04:43:00,
2013-07-06 00:53:00,70.0,63.0,-100.00,South,180,0.0,-999.0,77,-99.99,,,-99.99,0.000000,,2013-07-06 04:53:00,
2013-07-06 01:00:00,69.0,62.0,-100.00,SE,135,0.0,-999.0,80,-99.99,,,-99.99,0.000000,,2013-07-06 05:00:00,
2013-07-06 01:34:00,69.0,62.0,-100.00,SE,135,0.0,-999.0,80,-99.99,,,-99.99,0.000000,,2013-07-06 05:34:00,
2013-07-06 01:43:00,69.0,62.0,-100.00,SE,135,0.0,-999.0,80,-99.99,,,-99.99,0.000000,,2013-07-06 05:43:00,
2013-07-06 01:53:00,69.0,62.0,-100.00,SE,135,0.0,-999.0,80,-99.99,,,-99.99,0.000000,,2013-07-06 05:53:00,
2013-07-06 02:00:00,67.0,63.0,-100.00,SSW,202,0.0,-999.0,87,-99.99,,,-99.99,0.000000,,2013-07-06 06:00:00,
2013-07-06 02:43:00,67.0,63.0,-100.00,SSW,202,0.0,-999.0,87,-99.99,,,-99.99,0.000000,,2013-07-06 06:43:00,
2013-07-06 02:53:00,67.0,63.0,-100.00,SSW,202,0.0,-999.0,87,-99.99,,,-99.99,0.000000,,2013-07-06 06:53:00,
2013-07-06 03:00:00,66.0,63.0,-100.00,NW,315,0.0,-999.0,90,-99.99,,,-99.99,0.000000,,2013-07-06 07:00:00,
2013-07-06 03:44:00,66.0,63.0,-100.00,NW,315,0.0,-999.0,90,-99.99,,,-99.99,0.000000,,2013-07-06 07:44:00,
2013-07-06 03:52:00,66.0,63.0,-100.00,NW,315,0.0,-999.0,90,-99.99,,,-99.99,0.000000,,2013-07-06 07:52:00,
2013-07-06 04:00:00,65.0,63.0,-100.00,West,270,0.0,-999.0,92,-99.99,,,-99.99,0.000000,,2013-07-06 08:00:00,
2013-07-06 04:43:00,65.0,63.0,-100.00,West,270,0.0,-999.0,92,-99.99,,,-99.99,0.000000,,2013-07-06 08:43:00,
2013-07-06 04:54:00,65.0,63.0,-100.00,West,270,0.0,-999.0,92,-99.99,,,-99.99,0.000000,,2013-07-06 08:54:00,
2013-07-06 05:00:00,65.0,64.0,-100.00,West,270,0.0,-999.0,93,-99.99,,,-99.99,0.000000,,2013-07-06 09:00:00,
2013-07-06 05:43:00,65.0,64.0,-100.00,West,270,0.0,-999.0,93,-99.99,,,-99.99,0.000000,,2013-07-06 09:43:00,
2013-07-06 05:53:00,65.0,64.0,-100.00,West,270,0.0,-999.0,93,-99.99,,,-99.99,0.000000,,2013-07-06 09:53:00,
2013-07-06 06:00:00,65.0,63.0,-100.00,WSW,247,0.0,-999.0,93,-99.99,,,-99.99,0.000000,,2013-07-06 10:00:00,
2013-07-06 06:43:00,65.0,63.0,-100.00,WSW,247,0.0,-999.0,93,-99.99,,,-99.99,0.000000,,2013-07-06 10:43:00,
2013-07-06 06:53:00,65.0,63.0,-100.00,WSW,247,0.0,-999.0,93,-99.99,,,-99.99,0.000000,,2013-07-06 10:53:00,
2013-07-06 07:00:00,65.0,63.0,-100.00,SW,225,0.0,-999.0,94,-99.99,,,-99.99,16.240000,,2013-07-06 11:00:00,
2013-07-06 07:43:00,65.0,63.0,-100.00,SW,225,0.0,-999.0,94,-99.99,,,-99.99,16.240000,,2013-07-06 11:43:00,
2013-07-06 07:53:00,65.0,63.0,-100.00,SW,225,0.0,-999.0,94,-99.99,,,-99.99,16.240000,,2013-07-06 11:53:00,
2013-07-06 08:00:00,68.0,66.0,-100.00,SSW,202,0.0,-999.0,91,-99.99,,,-99.99,122.959999,,2013-07-06 12:00:00,
2013-07-06 08:43:00,68.0,66.0,-100.00,SSW,202,0.0,-999.0,91,-99.99,,,-99.99,122.959999,,2013-07-06 12:43:00,
2013-07-06 08:52:00,68.0,66.0,-100.00,SSW,202,0.0,-999.0,91,-99.99,,,-99.99,122.959999,,2013-07-06 12:52:00,
2013-07-06 09:00:00,73.0,65.0,-100.00,WSW,247,0.0,-999.0,76,-99.99,,,-99.99,303.920013,,2013-07-06 13:00:00,
2013-07-06 09:43:00,73.0,65.0,-100.00,WSW,247,0.0,-999.0,76,-99.99,,,-99.99,303.920013,,2013-07-06 13:43:00,
2013-07-06 09:52:00,73.0,65.0,-100.00,WSW,247,0.0,-999.0,76,-99.99,,,-99.99,303.920013,,2013-07-06 13:52:00,
2013-07-06 10:00:00,76.0,65.0,-100.00,SSW,202,2.0,-999.0,70,-99.99,,,-99.99,407.160004,,2013-07-06 14:00:00,
2013-07-06 10:34:00,76.0,65.0,-100.00,SSW,202,2.0,-999.0,70,-99.99,,,-99.99,407.160004,,2013-07-06 14:34:00,
2013-07-06 10:42:00,76.0,65.0,-100.00,SSW,202,2.0,-999.0,70,-99.99,,,-99.99,407.160004,,2013-07-06 14:42:00,
2013-07-06 10:53:00,76.0,65.0,-100.00,SSW,202,2.0,-999.0,70,-99.99,,,-99.99,407.160004,,2013-07-06 14:53:00,
2013-07-06 11:00:00,77.0,65.0,-100.00,South,180,1.0,-999.0,66,-99.99,,,-99.99,479.079987,,2013-07-06 15:00:00,
2013-07-06 11:43:00,77.0,65.0,-100.00,South,180,1.0,-999.0,66,-99.99,,,-99.99,479.079987,,2013-07-06 15:43:00,
2013-07-06 11:53:00,77.0,65.0,-100.00,South,180,1.0,-999.0,66,-99.99,,,-99.99,479.079987,,2013-07-06 15:53:00,
2013-07-06 12:00:00,80.0,64.0,-100.00,South,180,2.0,-999.0,58,-99.99,,,-99.99,596.239990,,2013-07-06 16:00:00,
2013-07-06 14:00:00,81.0,64.0,-100.00,South,180,3.0,-999.0,56,-99.99,,,-99.99,800.400024,,2013-07-06 18:00:00,
2013-07-06 15:00:00,81.0,64.0,-100.00,South,180,3.0,-999.0,56,-99.99,,,-99.99,566.080017,,2013-07-06 19:00:00,
2013-07-06 16:00:00,82.0,65.0,-100.00,South,180,2.0,-999.0,55,-99.99,,,-99.99,533.599976,,2013-07-06 20:00:00,
2013-07-06 16:52:00,82.0,65.0,-100.00,South,180,2.0,-999.0,55,-99.99,,,-99.99,533.599976,,2013-07-06 20:52:00,
2013-07-06 17:00:00,80.0,65.0,-100.00,South,180,1.0,-999.0,61,-99.99,,,-99.99,221.559998,,2013-07-06 21:00:00,
2013-07-06 18:00:00,79.0,65.0,-100.00,SSE,157,1.0,-999.0,62,0.08,,,-99.99,172.839996,,2013-07-06 22:00:00,
2013-07-06 19:00:00,74.0,68.0,-100.00,SSW,202,1.0,-999.0,82,-99.99,,,-99.99,70.760002,,2013-07-06 23:00:00,
2013-07-06 19:52:00,74.0,68.0,-100.00,SSW,202,1.0,-999.0,82,-99.99,,,-99.99,70.760002,,2013-07-06 23:52:00,
2013-07-06 21:00:00,73.0,66.0,-100.00,SSE,157,0.0,-999.0,79,0.01,,,-99.99,37.119999,,2013-07-07 01:00:00,
2013-07-06 21:50:00,73.0,66.0,-100.00,SSE,157,0.0,-999.0,79,0.01,,,-99.99,37.119999,,2013-07-07 01:50:00,
2013-07-06 22:00:00,71.0,67.0,-100.00,South,180,0.0,-999.0,86,-99.99,,,-99.99,1.160000,,2013-07-07 02:00:00,
2013-07-06 22:54:00,71.0,67.0,-100.00,South,180,0.0,-999.0,86,-99.99,,,-99.99,1.160000,,2013-07-07 02:54:00,
2013-07-06 23:00:00,70.0,68.0,-100.00,SSW,202,1.0,-999.0,90,-99.99,,,-99.99,0.000000,,2013-07-07 03:00:00,